Вернуться в каталог

SL-3 DEB

АктивенLEO
NORAD 21126·DEBRIS·🇷🇺 Russia

Запущен Aug 28, 1964 с Baikonur Cosmodrome

Loading…

Ближайшие Пролёты (ближайшие 24 часа)

TLE

СвежийSource: Space-Track

Эпоха: Sep 14, 2026, 10:07 UTC

1 21126U 64053C   26257.42207337  .00000301  00000-0  70411-4 0  9991
2 21126  65.0757 245.6823 0060954 206.4180 231.2074 14.69818917279066

Отслеживайте SL-3 DEB в реальном времени с AllMySat

Download on the App Store